ZACUBE-1 (TSHEPISOSAT)

Last updated on Dec. 9, 2021, 12:02 a.m. UTC

1 39417U 13066B   21342.49061223  .00000524  00000+0  71305-4 0  9999
2 39417  97.6134 318.0004 0057347 311.7456  47.8862 14.81709112434847
UTC
Height (km)
Latitude
Longitude
Inclination
Orbital Period
UTC large
Height (km)
Speed (km/s)
/
Latitude / Longitude
Inclination (degrees)
Orbital Period (minutes)
Azimuth
Elevation
Range (km)
Doppler Factor
iOS Compass Heading
iOS Angle